Weather in Novomikhaylovskoye

Russia / Smolensk Oblast     54°21′48″N   31°37′02″E
temp.,
°C
wind,
m/s
gust,
m/s
humid.,
%
clouds,
%
prec.,
mm/h
press.,
hPa
HPBL,
m
25 june, sat
sat2500:00+15ene22825 0.0 101712
03:00+14ene33875 0.0 101826
06:00+15ene34865 0.0 101867
09:00+20ene34755 0.0 1019299
12:00+23ene46684 0.0 10191016
15:00+24ene456524 0.0 10191441
18:00+24ne24725 0.1 1019915
21:00+20ene22815 0.1 102014
26 june, sun
sun2600:00+18e12814 0.0 102111
03:00+16e22862 0.0 102211
06:00+17ene22865 0.0 102234
09:00+22e34760 0.0 1023293
12:00+25ese23664 0.0 1023925
15:00+26e236059 0.0 10231628
18:00+26ne226776 0.0 10221107
21:00+21n22761 0.0 102311
27 june, mon
mon2700:00+19n22860 0.0 102414
03:00+18n339039 0.0 102426
06:00+19nne238798 0.0 102560
09:00+21n2385100 0.0 1024133
12:00+25n237446 0.0 1024396
15:00+28n336232 0.1 10231382
18:00+27n247468 0.6 1022239
21:00+22nw338363 1.1 102221
28 june, tue
tue2800:00+20nnw228661 0.0 102317
03:00+19nnw33885 0.0 102242
06:00+19n33875 0.0 102256
09:00+24nne357510 0.0 1022299
12:00+27ne45677 0.0 1022682
15:00+28ene45631 0.2 1021988
18:00+28e12640 0.2 1020957
21:00+20nne4692100 2.6 1021103
29 june, wed
wed2900:00+19e3894100 1.1 1022160
03:00+19e3694100 1.8 1022121
06:00+18e36975 0.0 1022197
09:00+21ese468686 0.0 1022521
12:00+23e557634 0.0 1023944
15:00+24e557194 0.0 10221170
18:00+23e447514 0.0 1022964
21:00+18e498724 0.0 1022186